EW7239 Weather Reports


time (UTC)temp
C
wind
direction
speed
KPH
gust
KPH
rain 1hr
cm
rain 24hr
cm
rain mn
cm
humidity
%
barometer
mb
20260510050059 18 229 6.4 11.3 0.00 0.00 0.00 76 1013.3
20260510045546 18 229 6.4 11.3 0.00 0.00 0.00 76 1013.3
20260510045315 18 230 6.4 11.3 0.00 0.00 0.00 75 1013.3
20260510044545 18 229 6.4 11.3 0.00 0.00 0.00 75 1013.3
20260510044042 18 230 4.8 11.3 0.00 0.00 0.00 75 1013.2
20260510043815 18 231 4.8 11.3 0.00 0.00 0.00 75 1013.1
20260510043036 19 231 6.4 11.3 0.00 0.00 0.00 74 1013.1
20260510042036 19 223 6.4 14.5 0.00 0.00 0.00 74 1012.9
20260510041536 19 222 8.0 14.5 0.00 0.00 0.00 73 1012.9
20260510041036 19 222 8.0 14.5 0.00 0.00 0.00 73 1012.7
20260510040533 19 223 8.0 12.9 0.00 0.00 0.00 72 1012.7
20260510040034 19 227 9.7 14.5 0.00 0.00 0.00 72 1012.6
20260510035534 20 232 9.7 14.5 0.00 0.00 0.00 71 1012.5
20260510035306 20 221 8.0 12.9 0.00 0.00 0.00 70 1012.6
20260510034534 20 219 6.4 12.9 0.00 0.00 0.00 70 1012.5
20260510034035 20 222 6.4 12.9 0.00 0.00 0.00 69 1012.3
20260510033805 20 222 6.4 12.9 0.00 0.00 0.00 68 1012.2
20260510033034 20 222 6.4 11.3 0.00 0.00 0.00 67 1012.2
20260510032535 21 223 8.0 11.3 0.00 0.00 0.00 67 1012.1
20260510032033 21 223 9.7 16.1 0.00 0.00 0.00 67 1012.1
20260510031532 21 222 9.7 16.1 0.00 0.00 0.00 66 1012.0
20260510031032 21 223 9.7 16.1 0.00 0.00 0.00 65 1011.9
20260510030532 21 225 8.0 16.1 0.00 0.00 0.00 64 1011.8
20260510030030 21 221 8.0 16.1 0.00 0.00 0.00 63 1011.8
20260510025802 22 219 9.7 17.7 0.00 0.00 0.00 63 1011.7
20260510025023 22 219 11.3 19.3 0.00 0.00 0.00 62 1011.7
20260510024525 22 217 9.7 19.3 0.00 0.00 0.00 61 1011.6
20260510024024 22 227 8.0 14.5 0.00 0.00 0.00 60 1011.5
20260510023025 23 222 9.7 17.7 0.00 0.00 0.00 58 1011.4
20260510022523 23 225 9.7 20.9 0.00 0.00 0.00 57 1011.4
20260510022023 23 217 9.7 20.9 0.00 0.00 0.00 56 1011.3
20260510021520 24 221 11.3 22.5 0.00 0.00 0.00 54 1011.3
20260510021018 24 228 12.9 22.5 0.00 0.00 0.00 53 1011.2
20260510020801 25 226 12.9 19.3 0.00 0.00 0.00 52 1011.2
20260510015516 25 221 12.9 19.3 0.00 0.00 0.00 50 1011.2
20260510015016 25 220 12.9 19.3 0.00 0.00 0.00 50 1011.1
20260510014517 25 219 12.9 19.3 0.00 0.00 0.00 49 1011.0
20260510014012 25 219 12.9 20.9 0.00 0.00 0.00 48 1011.0
20260510013512 26 217 12.9 22.5 0.00 0.00 0.00 46 1011.0
20260510013012 26 215 11.3 22.5 0.00 0.00 0.00 46 1011.0
20260510012513 26 223 11.3 17.7 0.00 0.00 0.00 46 1010.9
20260510012240 27 230 9.7 17.7 0.00 0.00 0.00 45 1010.8
20260510011509 27 226 11.3 27.4 0.00 0.00 0.00 43 1010.8
20260510011008 27 218 12.9 27.4 0.00 0.00 0.00 43 1010.8
20260510010737 27 227 11.3 25.7 0.00 0.00 0.00 42 1010.8
20260510010005 27 236 12.9 25.7 0.00 0.00 0.00 42 1010.8
20260510005504 27 227 12.9 22.5 0.00 0.00 0.00 42 1010.7
20260510005235 27 220 14.5 24.1 0.00 0.00 0.00 41 1010.7
20260510004502 27 232 16.1 27.4 0.00 0.00 0.00 42 1010.7
20260510004232 27 221 16.1 27.4 0.00 0.00 0.00 41 1010.6
20260510003500 28 214 12.9 24.1 0.00 0.00 0.00 41 1010.6
20260510003231 28 232 14.5 25.7 0.00 0.00 0.00 41 1010.6
20260510002730 28 222 14.5 25.7 0.00 0.00 0.00 42 1010.6
20260510001958 28 221 12.9 25.7 0.00 0.00 0.00 41 1010.6
20260510001458 28 227 14.5 25.7 0.00 0.00 0.00 43 1010.6
20260510001011 28 240 16.1 25.7 0.00 0.00 0.00 41 1010.5
20260510000458 28 209 14.5 25.7 0.00 0.00 0.00 41 1010.6
20260509235957 29 257 14.5 25.7 0.00 0.00 0.00 41 1010.6
20260509235454 29 216 12.9 25.7 0.00 0.00 0.00 40 1010.7
20260509234955 29 213 12.9 24.1 0.00 0.00 0.00 41 1010.6
20260509234450 30 227 12.9 24.1 0.00 0.00 0.00 41 1010.6
20260509233950 30 225 11.3 24.1 0.00 0.00 0.00 39 1010.7
20260509233451 30 226 11.3 22.5 0.00 0.00 0.00 41 1010.6
20260509232944 30 219 11.3 22.5 0.00 0.00 0.00 37 1010.6
20260509232444 30 263 11.3 20.9 0.00 0.00 0.00 37 1010.7
20260509232214 30 216 11.3 22.5 0.00 0.00 0.00 39 1010.7
20260509231443 30 225 11.3 22.5 0.00 0.00 0.00 37 1010.6
20260509230943 30 225 11.3 20.9 0.00 0.00 0.00 37 1010.7
20260509230445 30 253 11.3 22.5 0.00 0.00 0.00 38 1010.6
20260509225944 30 248 11.3 22.5 0.00 0.00 0.00 38 1010.8
20260509225444 30 213 11.3 20.9 0.00 0.00 0.00 38 1010.8
20260509224943 30 255 11.3 24.1 0.00 0.00 0.00 37 1010.8
20260509224439 30 216 11.3 24.1 0.00 0.00 0.00 38 1010.9
20260509223938 30 242 12.9 24.1 0.00 0.00 0.00 39 1010.9
20260509223709 31 236 11.3 24.1 0.00 0.00 0.00 38 1010.9
20260509222938 31 232 9.7 19.3 0.00 0.00 0.00 39 1010.9
20260509222438 31 267 11.3 17.7 0.00 0.00 0.00 39 1011.0
20260509222209 31 267 11.3 19.3 0.00 0.00 0.00 37 1011.0
20260509221437 30 259 9.7 20.9 0.00 0.00 0.00 39 1011.1
20260509220934 30 222 9.7 20.9 0.00 0.00 0.00 39 1011.2
20260509220434 30 215 11.3 19.3 0.00 0.00 0.00 39 1011.2
20260509220201 30 262 12.9 20.9 0.00 0.00 0.00 41 1011.2
20260509215702 30 234 11.3 20.9 0.00 0.00 0.00 40 1011.3
20260509214930 30 222 11.3 20.9 0.00 0.00 0.00 40 1011.4
20260509214426 30 226 11.3 22.5 0.00 0.00 0.00 41 1011.4
20260509213926 30 225 11.3 22.5 0.00 0.00 0.00 41 1011.4
20260509213426 30 225 9.7 19.3 0.00 0.00 0.00 41 1011.4
20260509212924 30 217 11.3 19.3 0.00 0.00 0.00 42 1011.5
20260509212656 30 219 11.3 20.9 0.00 0.00 0.00 40 1011.6
20260509211925 30 232 9.7 20.9 0.00 0.00 0.00 40 1011.7
20260509211425 30 235 9.7 17.7 0.00 0.00 0.00 41 1011.8
20260509210922 30 249 8.0 17.7 0.00 0.00 0.00 39 1011.9
20260509210420 30 221 8.0 17.7 0.00 0.00 0.00 39 1011.9
20260509205921 30 227 8.0 14.5 0.00 0.00 0.00 39 1012.0
20260509205417 30 201 8.0 14.5 0.00 0.00 0.00 40 1012.0
20260509204918 30 225 8.0 14.5 0.00 0.00 0.00 40 1012.1
20260509204419 30 226 9.7 19.3 0.00 0.00 0.00 41 1012.1
20260509203413 30 221 8.0 17.7 0.00 0.00 0.00 42 1012.0
20260509203145 29 242 6.4 17.7 0.00 0.00 0.00 43 1012.1
20260509202410 29 221 8.0 14.5 0.00 0.00 0.00 41 1012.2
20260509201910 29 225 8.0 14.5 0.00 0.00 0.00 42 1012.2
20260509201409 30 232 6.4 16.1 0.00 0.00 0.00 38 1012.3
20260509200909 29 225 6.4 16.1 0.00 0.00 0.00 39 1012.3
20260509200637 29 202 6.4 11.3 0.00 0.00 0.00 39 1012.5
20260509195906 28 252 6.4 12.9 0.00 0.00 0.00 39 1012.5
20260509195404 28 247 6.4 12.9 0.00 0.00 0.00 40 1012.6
20260509194903 28 171 6.4 14.5 0.00 0.00 0.00 40 1012.7
20260509194405 28 226 6.4 14.5 0.00 0.00 0.00 39 1012.7
20260509193905 28 232 4.8 11.3 0.00 0.00 0.00 41 1012.8
20260509193403 28 224 4.8 11.3 0.00 0.00 0.00 42 1012.9
20260509192859 28 223 4.8 11.3 0.00 0.00 0.00 43 1012.9
20260509192358 27 213 4.8 11.3 0.00 0.00 0.00 45 1013.0
20260509191858 27 213 4.8 11.3 0.00 0.00 0.00 45 1013.0
20260509191358 27 213 6.4 12.9 0.00 0.00 0.00 45 1013.1
20260509190854 27 221 4.8 12.9 0.00 0.00 0.00 47 1013.1
20260509190355 27 232 6.4 14.5 0.00 0.00 0.00 47 1013.2
20260509185852 26 246 4.8 14.5 0.00 0.00 0.00 51 1013.2
20260509185352 26 234 6.4 12.9 0.00 0.00 0.00 50 1013.2
20260509184850 26 242 4.8 11.3 0.00 0.00 0.00 53 1013.3
20260509184351 25 240 6.4 11.3 0.00 0.00 0.00 54 1013.4
20260509183849 25 254 6.4 11.3 0.00 0.00 0.00 55 1013.5
20260509183348 25 234 6.4 11.3 0.00 0.00 0.00 56 1013.4
20260509182847 24 236 4.8 12.9 0.00 0.00 0.00 58 1013.4
20260509182347 24 242 4.8 11.3 0.00 0.00 0.00 58 1013.4
20260509181844 24 246 4.8 11.3 0.00 0.00 0.00 60 1013.5
20260509181344 23 250 4.8 11.3 0.00 0.00 0.00 63 1013.5
20260509180843 23 252 3.2 9.7 0.00 0.00 0.00 64 1013.6
20260509180343 23 249 3.2 9.7 0.00 0.00 0.00 63 1013.6
20260509175840 23 252 3.2 6.4 0.00 0.00 0.00 65 1013.6
20260509175612 22 252 1.6 6.4 0.00 0.00 0.00 66 1013.6
20260509174840 22 223 1.6 6.4 0.00 0.00 0.00 68 1013.7
20260509174336 21 223 1.6 6.4 0.00 0.00 0.00 69 1013.8
20260509173836 21 223 3.2 6.4 0.00 0.00 0.00 70 1013.7
20260509172837 21 223 3.2 8.0 0.00 0.00 0.00 76 1013.8
20260509172336 20 223 3.2 8.0 0.00 0.00 0.00 77 1013.9
20260509171837 20 223 3.2 6.4 0.00 0.00 0.00 79 1013.9
20260509171336 19 223 3.2 6.4 0.00 0.00 0.00 81 1013.9
20260509170836 19 223 1.6 6.4 0.00 0.00 0.00 82 1014.0
20260509170336 18 223 1.6 6.4 0.00 0.00 0.00 84 1014.0
20260509170108 18 223 1.6 8.0 0.00 0.00 0.00 84 1013.9
20260509165337 17 223 3.2 9.7 0.00 0.00 0.00 84 1014.0
20260509164837 17 224 3.2 9.7 0.00 0.00 0.00 83 1014.0
20260509164335 17 227 1.6 9.7 0.00 0.00 0.00 79 1014.0
20260509163836 17 227 1.6 4.8 0.00 0.00 0.00 78 1014.0
20260509163331 17 227 1.6 4.8 0.00 0.00 0.00 78 1014.0
20260509162833 16 227 1.6 4.8 0.00 0.00 0.00 77 1014.1
20260509162332 16 227 3.2 8.0 0.00 0.00 0.00 77 1014.2
20260509162056 16 227 3.2 9.7 0.00 0.00 0.00 76 1014.1
20260509161327 16 227 1.6 8.0 0.00 0.00 0.00 76 1014.1
20260509161058 16 227 1.6 6.4 0.00 0.00 0.00 76 1014.1
20260509160327 16 227 1.6 4.8 0.00 0.00 0.00 76 1014.2
20260509155826 16 227 0.0 4.8 0.00 0.00 0.00 76 1014.2
20260509155322 16 227 1.6 4.8 0.00 0.00 0.00 77 1014.3
20260509154555 15 227 1.6 4.8 0.00 0.00 0.00 77 1014.2
20260509153823 15 227 1.6 4.8 0.00 0.00 0.00 77 1014.2
20260509153320 15 227 1.6 4.8 0.00 0.00 0.00 77 1014.3
20260509152319 15 227 0.0 4.8 0.00 0.00 0.00 76 1014.2
20260509151818 15 227 1.6 6.4 0.00 0.00 0.00 76 1014.3
20260509151318 15 227 1.6 6.4 0.00 0.00 0.00 77 1014.3
20260509150817 15 227 1.6 4.8 0.00 0.00 0.00 77 1014.3
20260509145815 15 227 1.6 6.4 0.00 0.00 0.00 77 1014.3
20260509144310 15 227 1.6 6.4 0.00 0.00 0.00 78 1014.3
20260509143810 15 227 1.6 4.8 0.00 0.00 0.00 78 1014.3
20260509143538 15 227 1.6 4.8 0.00 0.00 0.00 78 1014.2
20260509143039 15 227 1.6 4.8 0.00 0.00 0.00 78 1014.2
20260509142307 15 227 1.6 4.8 0.00 0.00 0.00 78 1014.2
20260509141806 15 229 0.0 4.8 0.00 0.00 0.00 78 1014.1
20260509140807 15 229 0.0 3.2 0.00 0.00 0.00 79 1014.1
20260509140538 15 229 0.0 3.2 0.00 0.00 0.00 79 1014.1
20260509135803 15 229 0.0 1.6 0.00 0.00 0.00 79 1014.1
20260509135533 15 229 0.0 3.2 0.00 0.00 0.00 79 1014.1
20260509134803 15 229 0.0 3.2 0.00 0.00 0.00 79 1014.1
20260509134258 15 229 0.0 3.2 0.00 0.00 0.00 80 1014.0
20260509133758 15 229 0.0 1.6 0.00 0.00 0.00 80 1014.0
20260509133530 15 229 1.6 4.8 0.00 0.00 0.00 80 1014.0
20260509132759 15 229 1.6 4.8 0.00 0.00 0.00 80 1013.9
20260509132259 14 229 0.0 4.8 0.00 0.00 0.00 80 1013.9
20260509131757 14 229 1.6 4.8 0.00 0.00 0.00 81 1013.8
20260509131311 14 229 1.6 4.8 0.00 0.00 0.00 81 1013.8
20260509130754 14 229 1.6 4.8 0.00 0.00 0.00 81 1013.7
20260509130306 14 223 1.6 4.8 0.00 0.00 0.00 81 1013.7
20260509130025 14 223 1.6 4.8 0.00 0.00 0.00 81 1013.6
20260509125252 14 223 3.2 6.4 0.00 0.00 0.00 81 1013.6
20260509124749 14 223 3.2 6.4 0.00 0.00 0.00 82 1013.6
20260509124250 14 223 3.2 4.8 0.00 0.00 0.00 82 1013.5
20260509123745 14 223 1.6 4.8 0.00 0.00 0.00 82 1013.6
20260509123246 14 223 0.0 3.2 0.00 0.00 0.00 83 1013.6
20260509122746 13 223 0.0 0.0 0.00 0.00 0.00 83 1013.5
20260509122516 14 223 0.0 0.0 0.00 0.00 0.00 83 1013.5
20260509121742 14 223 0.0 0.0 0.00 0.00 0.00 83 1013.5
20260509121242 14 223 0.0 0.0 0.00 0.00 0.00 83 1013.5
20260509120736 14 223 0.0 0.0 0.00 0.00 0.00 83 1013.5
20260509120237 14 223 0.0 0.0 0.00 0.00 0.00 83 1013.5
20260509115736 14 223 0.0 0.0 0.00 0.00 0.00 84 1013.5
20260509115236 14 223 0.0 0.0 0.00 0.00 0.00 84 1013.6
20260509114734 13 223 0.0 0.0 0.00 0.00 0.00 84 1013.6
20260509114505 14 223 0.0 0.0 0.00 0.00 0.00 84 1013.5
20260509113733 13 223 0.0 0.0 0.00 0.00 0.00 84 1013.5
20260509113235 13 223 0.0 0.0 0.00 0.00 0.00 85 1013.4
20260509112734 13 223 0.0 0.0 0.00 0.00 0.00 84 1013.4
20260509112233 14 223 0.0 0.0 0.00 0.00 0.00 84 1013.4
20260509111730 14 223 0.0 0.0 0.00 0.00 0.00 85 1013.5
20260509111230 14 223 0.0 0.0 0.00 0.00 0.00 85 1013.6
20260509110731 14 223 0.0 0.0 0.00 0.00 0.00 85 1013.6
20260509110230 14 223 0.0 0.0 0.00 0.00 0.00 85 1013.6
20260509105229 14 223 0.0 0.0 0.00 0.00 0.00 85 1013.6
20260509104725 14 223 0.0 0.0 0.00 0.00 0.00 85 1013.6
20260509104225 14 223 0.0 0.0 0.00 0.00 0.00 85 1013.6
20260509103724 14 223 0.0 0.0 0.00 0.00 0.00 85 1013.6
20260509103222 14 223 0.0 0.0 0.00 0.00 0.00 85 1013.6
20260509102720 14 223 0.0 0.0 0.00 0.00 0.00 85 1013.6
20260509101718 14 223 0.0 0.0 0.00 0.00 0.00 85 1013.7
20260509101218 14 223 0.0 0.0 0.00 0.00 0.00 86 1013.8
20260509100716 14 223 0.0 0.0 0.00 0.00 0.00 85 1013.8
20260509100227 14 223 0.0 0.0 0.00 0.00 0.00 86 1013.8
20260509095712 14 223 0.0 0.0 0.00 0.00 0.00 86 1013.8
20260509095213 14 223 1.6 4.8 0.00 0.00 0.00 86 1013.8
20260509094709 15 223 1.6 4.8 0.00 0.00 0.00 86 1013.8
20260509094208 15 223 1.6 4.8 0.00 0.00 0.00 86 1013.9
20260509093708 15 223 1.6 4.8 0.00 0.00 0.00 86 1013.9
20260509092709 15 223 1.6 4.8 0.00 0.00 0.00 86 1014.0
20260509092208 15 223 1.6 4.8 0.00 0.00 0.00 86 1014.1
20260509091939 15 223 1.6 3.2 0.00 0.00 0.00 86 1014.1
20260509091208 15 223 1.6 3.2 0.00 0.00 0.00 86 1014.1
20260509090709 15 223 1.6 3.2 0.00 0.00 0.00 85 1014.1
20260509090207 15 223 1.6 4.8 0.00 0.00 0.00 85 1014.1
20260509085705 15 223 1.6 4.8 0.00 0.00 0.00 85 1014.1
20260509085204 15 223 1.6 3.2 0.00 0.00 0.00 85 1014.2
20260509084701 15 223 1.6 3.2 0.00 0.00 0.00 85 1014.2
20260509084201 15 223 1.6 3.2 0.00 0.00 0.00 85 1014.2
20260509083701 15 223 1.6 3.2 0.00 0.00 0.00 85 1014.3
20260509083158 15 223 0.0 3.2 0.00 0.00 0.00 85 1014.3
20260509082657 15 223 1.6 3.2 0.00 0.00 0.00 85 1014.3
20260509082158 15 223 1.6 3.2 0.00 0.00 0.00 85 1014.3
20260509081657 15 223 0.0 3.2 0.00 0.00 0.00 85 1014.3
20260509081156 15 223 0.0 3.2 0.00 0.00 0.00 84 1014.4
20260509080655 15 223 1.6 3.2 0.00 0.00 0.00 85 1014.4
20260509080155 15 223 0.0 3.2 0.00 0.00 0.00 85 1014.5
20260509075653 15 223 0.0 3.2 0.00 0.00 0.00 85 1014.5
20260509075152 15 223 1.6 3.2 0.00 0.00 0.00 84 1014.5
20260509074922 15 223 1.6 3.2 0.00 0.00 0.00 84 1014.5
20260509074148 15 223 0.0 3.2 0.00 0.00 0.00 84 1014.6
20260509073648 15 223 1.6 4.8 0.00 0.00 0.00 84 1014.5
20260509073143 15 223 1.6 4.8 0.00 0.00 0.00 84 1014.5
20260509072641 16 223 0.0 4.8 0.00 0.00 0.00 84 1014.5
20260509072140 16 223 1.6 4.8 0.00 0.00 0.00 84 1014.5
20260509071640 16 223 1.6 3.2 0.00 0.00 0.00 84 1014.5
20260509071141 16 223 1.6 4.8 0.00 0.00 0.00 84 1014.5
20260509070641 16 223 1.6 6.4 0.00 0.00 0.00 83 1014.6
20260509070412 16 223 0.0 6.4 0.00 0.00 0.00 84 1014.6
20260509065640 16 223 1.6 4.8 0.00 0.00 0.00 83 1014.6
20260509065140 16 223 1.6 4.8 0.00 0.00 0.00 83 1014.6
20260509064636 16 223 1.6 4.8 0.00 0.00 0.00 83 1014.6
20260509064409 16 223 1.6 4.8 0.00 0.00 0.00 83 1014.7
20260509063637 16 223 1.6 4.8 0.00 0.00 0.00 83 1014.7
20260509063133 16 223 0.0 4.8 0.00 0.00 0.00 82 1014.7
20260509062633 16 223 1.6 6.4 0.00 0.00 0.00 82 1014.7
20260509062133 16 223 3.2 8.0 0.00 0.00 0.00 82 1014.7
20260509061632 16 223 3.2 8.0 0.00 0.00 0.00 82 1014.7
20260509061129 16 223 3.2 8.0 0.00 0.00 0.00 82 1014.7
20260509060629 16 223 3.2 6.4 0.00 0.00 0.00 82 1014.8
20260509060124 16 223 3.2 8.0 0.00 0.00 0.00 81 1014.7
20260509055620 16 223 3.2 8.0 0.00 0.00 0.00 81 1014.7
20260509055120 16 223 3.2 8.0 0.00 0.00 0.00 81 1014.7
20260509054619 17 223 4.8 9.7 0.00 0.00 0.00 81 1014.7
20260509054117 17 223 4.8 9.7 0.00 0.00 0.00 80 1014.7
20260509053617 17 223 4.8 8.0 0.00 0.00 0.00 80 1014.7
20260509053110 17 223 4.8 8.0 0.00 0.00 0.00 80 1014.7
20260509052608 17 223 4.8 9.7 0.00 0.00 0.00 79 1014.8
20260509052107 17 223 3.2 9.7 0.00 0.00 0.00 79 1014.8
20260509051838 17 223 3.2 6.4 0.00 0.00 0.00 79 1014.8
20260509051352 17 223 4.8 11.3 0.00 0.00 0.00 79 1014.8
20260509050606 17 223 4.8 11.3 0.00 0.00 0.00 79 1014.7
20260509050339 17 225 4.8 9.7 0.00 0.00 0.00 78 1014.6